GFSGL_sfc_30mbdewp_093.txt.gz
Dewpoint
68 68 68 68 68 70 69 70 70 70 70 70 71 70 71 71 71 71 71 70 70 70 69 69 69 70 66 67 70 68 67 66 63 63 67 68 70 70 68 68 67 69 67
68 67 67 69 68 69 70 70 71 70 70 70 70 70 70 69 71 71 70 68 69 69 69 69 68 67 70 70 68 70 68 69 65 64 65 64 68 69 70 70 68 66 68
68 67 67 68 69 70 71 71 71 71 71 71 71 71 70 71 71 71 71 70 69 69 69 69 69 69 69 66 68 66 65 67 67 66 65 67 68 68 69 68 69 69 65
67 67 67 67 68 68 68 69 70 71 71 71 71 71 71 70 69 68 69 70 70 69 69 70 70 69 69 70 69 69 68 68 67 68 67 67 67 69 70 68 67 67 68
66 66 66 67 68 68 68 68 68 68 69 71 71 71 71 70 69 69 68 68 68 69 68 69 70 70 70 70 68 69 68 68 66 66 65 65 65 65 65 66 68 68 68
67 66 66 66 65 64 66 67 66 66 67 67 69 70 70 69 67 68 69 69 69 70 70 71 70 70 70 69 68 68 69 69 68 65 65 65 68 68 67 67 67 66 64
61 62 62 63 63 62 62 62 62 63 63 63 63 65 66 64 60 62 64 70 71 71 71 71 71 68 70 71 70 69 68 67 68 70 68 69 68 70 70 70 68 68 67
54 55 55 57 57 58 58 58 59 60 61 60 61 62 60 51 54 60 61 67 69 70 71 71 71 71 71 71 71 70 70 71 71 70 70 70 71 71 72 71 71 70 69
49 50 51 51 51 51 53 53 55 56 58 59 60 63 56 49 48 53 64 66 67 68 69 70 71 71 62 64 69 70 70 70 69 69 69 69 69 68 68 69 68 66 64
46 47 48 47 49 49 51 52 54 56 57 57 55 55 53 48 46 45 51 52 54 61 67 65 60 54 52 56 63 69 69 70 70 71 71 70 69 71 69 68 69 67 66
45 45 46 45 45 47 48 49 50 50 51 51 51 52 51 51 46 45 45 47 47 50 53 53 52 51 49 50 55 61 61 59 59 62 65 68 68 69 69 70 71 70 67
44 44 44 45 42 44 46 47 47 47 47 48 48 45 44 47 44 44 44 45 45 47 47 48 48 46 47 49 53 57 56 56 55 56 57 58 59 60 60 61 67 70 70
43 43 43 43 43 43 43 44 42 43 42 41 41 40 41 43 43 42 43 43 44 43 45 46 47 47 48 50 52 53 55 55 55 55 55 55 55 57 61 63 64 68 71
42 42 42 41 41 41 39 39 39 39 39 39 40 40 40 40 40 40 40 40 40 40 42 42 46 48 50 51 51 51 52 54 55 55 56 57 57 58 58 60 60 61 61
41 40 40 40 40 39 39 39 39 40 40 39 39 39 38 39 39 37 37 37 39 40 43 44 42 43 44 45 46 48 50 50 50 51 52 53 54 54 56 58 60 61 62
38 38 38 37 37 37 36 37 39 40 39 39 39 39 39 38 36 36 36 37 39 41 42 39 39 40 40 41 43 44 46 48 50 53 53 54 54 55 55 56 58 59 62
38 39 37 36 35 34 34 33 32 36 37 35 36 36 36 36 35 35 35 37 39 41 38 39 39 40 40 41 42 43 43 46 51 48 49 51 54 54 54 54 55 56 57
39 38 36 33 32 33 33 33 31 31 31 32 35 35 35 35 35 35 35 36 34 36 36 36 37 38 40 41 41 41 42 42 43 44 48 47 48 50 52 55 56 57 60
37 34 33 32 32 31 31 31 30 31 31 31 31 32 33 34 34 34 34 33 33 33 33 34 35 35 36 37 38 39 40 42 42 43 44 43 44 45 46 49 51 54 55
37 34 32 33 32 31 31 30 29 30 30 31 30 30 31 32 31 31 32 32 32 31 32 32 33 33 34 35 36 36 37 38 38 40 42 43 43 44 46 49 52 53 55
34 34 34 34 33 32 32 31 30 29 29 29 29 32 33 32 30 30 31 31 31 31 31 31 32 32 32 32 33 34 34 34 35 36 37 40 43 47 46 47 48 50 52
35 35 35 35 34 35 34 34 33 32 31 30 28 30 32 31 30 30 31 31 31 32 32 32 32 32 31 32 32 31 31 31 32 33 35 37 38 40 41 45 48 49 51
33 34 35 35 34 36 36 36 36 35 34 33 32 29 29 30 31 31 32 31 32 32 32 32 32 31 32 32 33 32 31 31 31 32 32 34 35 35 36 39 41 44 48
33 33 34 35 36 35 35 36 37 37 36 34 33 32 30 29 30 31 32 32 32 32 32 32 32 32 32 32 32 32 32 32 33 33 33 34 34 34 35 36 37 39 42
35 34 35 36 36 36 36 36 36 36 36 36 35 33 33 31 30 31 32 32 33 33 32 32 32 32 32 32 32 33 33 32 33 33 33 33 34 34 34 34 35 36 39
37 35 35 36 37 37 37 36 36 37 37 37 37 36 35 33 31 31 32 33 33 32 33 33 33 33 33 33 33 33 33 32 32 32 32 33 33 33 33 34 34 34 35

GFSGL_sfc_30mbdewp_096.txt.gz
Dewpoint
69 69 68 67 66 66 66 67 67 69 70 70 69 67 68 67 67 69 68 68 69 67 68 67 67 67 63 61 62 63 61 61 60 59 62 64 68 67 67 68 66 64 60
69 69 68 67 67 66 66 67 68 68 70 70 70 70 69 67 68 68 68 67 68 67 66 66 67 64 66 65 63 63 63 64 62 61 63 62 65 67 67 69 66 63 62
70 69 68 67 67 67 67 67 68 69 68 67 68 68 68 68 68 69 70 69 67 66 66 66 67 66 66 63 62 62 60 61 62 61 61 61 62 65 66 67 65 65 64
69 68 67 67 67 69 68 68 68 69 69 67 67 67 68 70 70 69 69 70 69 67 67 66 66 66 67 68 68 66 66 66 64 63 61 59 59 62 64 61 59 60 62
68 67 68 68 69 68 69 69 69 69 69 69 70 70 70 70 68 70 69 68 68 68 67 67 67 67 68 69 67 66 67 66 62 59 59 58 58 60 62 61 61 60 62
68 67 67 68 68 68 68 68 68 68 68 69 69 70 69 68 63 66 69 69 68 68 68 69 69 69 69 69 68 68 69 70 67 66 62 61 64 65 64 64 63 62 61
65 65 65 66 66 65 64 65 66 66 66 66 67 68 65 62 56 60 63 69 69 70 69 69 68 64 67 68 68 68 68 68 68 70 67 67 68 69 69 69 67 66 65
59 59 60 62 62 63 62 62 63 63 64 64 64 65 59 50 50 57 61 67 69 69 69 70 70 70 61 66 69 67 67 68 70 70 69 70 71 71 71 70 70 70 69
55 54 54 54 55 58 59 60 61 61 62 63 63 62 56 50 45 49 59 65 67 68 69 64 66 64 54 56 69 69 68 68 68 68 68 69 69 68 68 69 67 64 62
50 50 50 52 52 53 54 55 57 58 60 60 61 57 52 51 44 45 51 55 59 61 67 64 51 51 49 51 62 66 67 68 68 66 67 68 69 71 69 71 69 66 65
47 48 48 48 50 51 52 52 54 55 57 57 57 56 53 51 45 44 45 45 47 52 55 55 55 46 45 47 50 58 61 58 57 59 61 63 64 65 65 70 72 71 68
47 47 47 47 43 47 50 50 51 52 52 53 53 50 49 50 43 43 43 44 44 46 46 47 47 45 46 47 50 54 52 53 54 57 58 58 58 58 58 59 63 65 65
45 45 45 45 45 47 47 47 45 47 44 44 44 43 43 44 44 41 42 41 42 42 44 41 43 45 48 50 50 49 52 55 56 56 56 57 57 58 59 60 62 65 68
45 45 45 44 44 43 39 40 39 39 39 40 40 40 39 40 40 38 36 37 38 39 39 42 42 44 46 48 49 50 51 49 50 49 48 50 51 52 52 52 53 55 56
42 41 42 40 41 41 40 41 39 41 41 39 38 38 38 38 36 36 36 36 37 39 42 40 38 39 38 39 41 42 44 46 46 46 48 48 48 48 48 49 50 51 52
39 38 36 36 37 36 38 36 39 39 37 37 36 37 39 35 35 35 35 36 38 40 40 38 37 39 39 39 39 40 41 42 44 48 46 45 46 47 49 51 51 50 50
37 37 34 35 34 35 34 34 33 34 35 35 35 34 34 34 34 34 35 36 37 38 35 36 38 39 39 40 40 39 39 41 44 41 42 42 44 43 42 44 45 46 48
39 37 35 33 31 32 32 32 31 32 33 35 34 34 33 33 34 34 34 35 34 34 33 34 35 35 36 36 37 38 38 39 39 40 41 41 42 42 41 42 42 42 44
37 32 32 31 31 30 31 30 29 30 30 31 33 34 34 33 33 33 34 34 32 32 32 32 33 33 33 35 36 36 37 37 37 38 38 38 40 41 41 42 42 45 49
37 34 31 31 30 30 29 28 28 29 29 30 30 29 30 33 32 32 33 33 32 31 32 32 33 34 34 35 34 34 34 33 33 34 34 36 36 37 38 40 41 42 42
33 32 32 32 30 30 30 29 28 27 27 27 28 31 30 33 30 30 31 31 32 32 33 33 34 34 33 33 34 34 32 32 32 32 33 33 33 34 35 36 37 38 39
32 32 32 33 31 32 31 31 30 30 29 28 26 30 30 31 29 29 31 31 32 33 33 33 33 32 32 33 33 32 32 32 32 32 32 32 32 33 33 34 34 35 35
32 34 33 33 33 33 33 33 32 32 32 31 30 28 27 27 28 29 31 31 32 32 33 32 32 32 32 32 32 32 32 31 32 32 32 32 32 32 32 32 32 32 33
33 33 33 33 34 33 33 34 34 34 33 31 31 30 30 29 28 29 31 31 32 32 32 32 32 32 33 32 32 32 32 33 33 33 33 32 32 33 33 33 33 33 33
34 34 33 34 34 33 33 33 33 33 33 32 31 32 31 31 30 29 29 30 31 31 32 32 32 32 32 33 33 33 34 33 33 33 34 34 34 34 34 34 34 34 34
37 35 34 34 35 35 34 34 33 33 33 33 33 33 34 33 32 30 30 30 30 30 33 32 32 33 33 33 33 34 33 33 34 34 34 34 34 34 34 33 33 33 34

GFSGL_sfc_30mbdewp_102.txt.gz
Dewpoint
68 69 69 69 69 69 69 68 68 69 65 66 70 69 69 69 69 70 70 70 68 68 68 68 68 69 67 67 67 66 65 65 63 66 66 68 69 69 70 70 70 70 69
70 70 69 69 70 67 67 68 68 68 70 70 70 70 70 69 69 70 70 69 68 68 68 68 68 65 68 69 69 68 67 67 65 64 65 66 66 67 67 71 71 67 66
69 68 67 69 68 69 69 67 71 69 69 70 70 70 69 70 69 70 70 70 70 69 69 68 68 68 67 67 68 68 67 67 65 64 63 63 63 64 64 67 69 66 68
67 67 67 69 69 69 69 69 68 69 68 69 69 69 69 70 69 70 71 70 70 70 69 69 69 68 67 68 67 67 67 67 67 67 67 66 64 67 68 65 64 69 67
69 68 68 69 68 68 68 68 68 67 69 70 69 69 68 66 64 66 68 70 69 69 69 69 69 69 68 68 68 68 67 67 67 67 66 66 67 68 67 68 69 68 67
69 68 68 69 69 69 69 67 67 67 68 69 68 70 67 63 56 59 63 70 68 68 69 71 71 70 70 68 67 66 67 67 67 68 68 67 68 69 70 70 70 69 68
69 69 68 68 68 69 69 68 68 67 68 66 70 66 57 51 51 54 59 65 69 69 69 70 69 68 63 65 70 69 68 68 67 68 68 69 70 70 72 71 71 71 70
67 68 68 68 67 67 66 66 66 66 66 67 66 63 57 47 47 51 58 63 67 69 71 72 71 63 54 55 63 69 71 71 71 70 69 71 72 72 71 71 71 70 71
60 61 63 64 64 64 64 65 65 66 65 66 66 63 58 48 43 47 57 59 69 70 66 57 62 53 47 48 61 64 67 69 67 65 64 63 63 64 66 68 67 68 66
53 55 58 59 61 61 61 61 63 64 65 65 62 59 58 51 42 41 50 55 57 57 64 54 47 43 42 44 51 56 60 63 57 55 57 60 63 66 66 67 68 67 67
53 52 52 54 56 57 57 58 59 61 63 63 61 59 53 52 43 40 40 48 47 52 52 51 50 41 40 43 46 49 57 53 52 53 57 60 63 63 64 67 69 67 66
50 51 51 51 52 52 55 56 56 57 59 59 60 59 57 49 46 40 38 39 42 46 49 50 45 38 40 43 46 50 49 49 54 56 55 52 51 53 53 57 60 62 65
49 49 48 49 49 52 52 51 52 53 53 56 56 54 52 52 43 40 39 40 41 40 45 42 40 41 42 44 49 48 48 53 53 49 49 51 53 53 53 53 55 56 56
49 49 47 48 47 48 51 52 50 47 46 46 45 45 47 49 46 41 37 38 40 42 41 42 45 45 44 43 45 53 52 51 50 50 48 47 48 49 49 52 49 47 47
49 48 49 49 47 49 41 39 43 37 37 40 40 44 43 42 37 34 32 34 37 38 39 45 48 44 46 45 46 46 48 48 46 46 46 46 46 46 46 47 47 47 47
47 46 44 44 44 46 45 40 35 34 33 32 33 37 36 32 32 33 33 35 36 37 42 45 42 43 43 42 42 41 43 44 44 44 43 43 43 44 44 45 46 46 46
46 43 40 39 41 41 42 42 39 33 33 32 30 29 30 29 31 33 34 34 35 38 40 42 41 41 40 41 41 41 41 43 46 41 42 42 41 41 40 40 41 41 42
46 38 41 38 35 36 38 39 38 37 35 33 33 36 31 31 33 33 34 35 38 40 39 39 39 39 39 40 40 40 40 40 38 40 39 39 39 39 39 38 38 38 38
45 41 38 36 36 34 35 35 34 34 37 39 35 33 33 32 33 34 34 39 38 36 36 37 37 38 39 40 40 41 41 38 39 39 38 38 38 38 37 37 37 37 37
45 41 35 35 34 34 34 33 32 32 33 35 39 39 37 37 38 40 41 38 36 36 37 37 38 39 40 40 40 39 37 37 36 36 37 37 36 36 35 35 35 35 35
42 41 35 34 33 32 32 31 31 30 30 32 34 30 19 29 37 34 34 36 35 35 37 38 38 38 38 38 38 37 35 35 35 35 35 35 35 34 35 34 34 35 35
43 39 37 34 33 34 32 32 32 31 30 29 34 28 24 24 34 33 34 34 35 36 36 37 36 35 37 37 36 35 34 33 34 35 35 34 34 34 34 35 35 35 35
44 38 37 34 33 33 33 33 32 32 31 30 30 31 31 27 33 31 32 33 34 34 35 34 34 34 35 36 35 35 34 35 35 35 35 35 35 35 36 36 36 36 35
45 42 36 35 34 34 33 34 33 32 31 31 32 32 31 30 30 31 32 32 33 33 33 33 34 33 35 35 35 34 35 34 35 35 36 36 36 36 36 36 36 36 35
49 45 40 37 36 35 35 33 33 34 33 33 33 33 32 32 32 32 31 32 32 33 32 32 32 32 33 34 35 36 33 33 36 35 36 35 35 35 35 36 36 35 35
50 49 44 43 43 40 38 37 36 36 36 35 34 34 35 34 33 33 33 32 31 31 31 31 31 31 33 34 36 34 34 35 35 34 34 33 35 36 36 36 36 36 36

GFSGL_sfc_30mbdewp_105.txt.gz
Dewpoint
70 69 69 69 70 69 69 70 69 67 64 63 63 68 70 70 69 69 69 69 67 68 69 69 67 67 68 69 68 69 66 67 63 65 65 65 65 65 64 68 70 70 69
70 70 69 70 68 69 68 68 69 69 68 68 70 71 70 70 69 70 70 69 69 68 67 68 67 68 66 67 68 67 67 67 65 61 66 67 66 68 68 69 70 71 70
70 69 69 67 65 69 69 67 68 69 70 71 70 70 70 69 69 70 70 69 69 69 68 68 68 68 68 67 66 65 68 68 68 67 67 67 66 68 66 67 67 69 68
68 67 66 68 69 69 70 70 69 69 68 69 69 70 69 69 68 69 70 70 69 69 70 69 69 68 67 68 67 67 68 66 67 66 66 66 67 68 69 68 69 70 68
66 66 66 67 68 67 67 66 67 67 67 69 69 68 67 65 63 64 66 68 69 69 70 69 70 69 69 68 68 67 68 66 65 64 65 66 66 67 67 70 70 70 70
68 67 69 68 67 67 68 68 67 67 67 68 68 66 62 56 54 56 60 65 69 69 69 69 70 65 65 66 68 69 67 66 65 67 67 67 67 68 69 70 70 69 68
68 69 68 69 68 69 69 69 67 66 67 68 63 56 49 46 49 53 58 61 66 68 69 70 69 60 57 60 64 69 70 68 68 68 67 67 68 69 70 70 69 70 69
69 68 68 68 67 67 66 66 65 66 67 65 61 56 48 42 46 53 58 63 67 68 65 67 61 53 49 54 63 65 68 65 64 64 67 66 66 66 66 67 69 70 70
62 64 65 65 65 65 63 66 66 66 66 64 61 57 50 41 42 51 56 60 67 58 53 53 48 44 46 49 53 55 61 63 59 55 54 57 59 60 62 64 64 66 66
56 58 60 61 61 60 60 61 61 63 65 61 59 56 51 43 41 41 50 51 55 61 57 52 47 39 41 44 42 47 53 55 51 50 55 57 59 62 57 64 67 64 64
55 55 55 56 57 57 57 58 59 62 63 61 58 54 52 44 40 38 40 41 45 50 52 50 47 40 39 43 45 44 49 50 49 54 55 51 52 53 53 56 60 63 62
52 52 52 53 53 55 55 56 57 57 60 61 61 55 49 46 42 39 40 41 43 42 45 49 41 41 42 43 45 48 48 50 54 51 51 50 50 50 52 53 53 49 51
49 48 49 50 51 53 50 51 48 54 52 55 57 56 52 43 41 40 37 39 41 43 43 41 42 45 47 47 49 52 51 53 49 47 47 48 49 49 48 47 47 48 48
48 48 48 47 48 49 45 47 45 45 47 47 47 48 52 47 43 35 33 36 38 38 38 40 45 49 49 49 46 46 47 47 45 45 45 45 45 45 44 46 47 46 48
49 48 48 47 48 40 38 42 38 35 36 39 40 39 43 42 33 32 32 31 35 36 38 46 45 43 42 42 44 44 44 44 41 41 42 42 43 42 40 42 42 42 43
49 49 49 49 47 43 38 35 35 34 32 33 36 40 32 29 30 31 34 35 35 36 39 45 43 44 44 42 42 42 42 44 41 41 43 42 41 40 40 40 40 39 38
50 49 45 45 45 49 44 40 35 32 33 31 30 30 34 31 31 32 34 34 35 38 40 45 41 41 41 40 41 40 40 39 40 40 40 40 40 39 39 38 38 37 37
48 44 43 43 40 40 47 44 41 36 31 26 30 34 30 30 32 33 34 35 38 39 39 40 40 40 41 40 40 39 40 39 40 40 39 39 37 37 37 36 36 36 35
48 46 43 39 39 39 39 39 41 40 37 34 31 32 32 32 33 33 34 35 41 39 39 39 40 40 40 41 40 39 39 38 38 37 37 37 36 36 36 35 35 35 35
48 48 43 38 37 36 34 34 35 35 42 38 33 32 34 35 35 37 41 39 39 38 40 39 40 40 40 39 39 38 37 37 36 36 36 36 35 35 35 35 35 35 35
47 46 44 37 37 36 35 34 34 34 37 41 41 40 36 35 37 38 42 37 38 38 38 38 39 40 40 38 37 36 35 36 36 36 35 35 35 34 35 36 36 36 36
48 46 43 37 36 38 34 34 35 34 34 36 35 32 28 28 32 38 37 37 37 39 38 37 37 38 37 36 36 35 36 36 35 35 35 35 36 36 36 36 35 35 34
52 50 50 40 36 34 37 34 35 34 33 36 32 28 26 26 23 35 36 38 37 38 36 36 36 37 37 36 37 37 36 35 35 36 35 35 36 36 36 36 36 36 35
53 52 51 44 37 34 34 36 34 35 34 33 35 31 30 30 29 36 35 37 36 36 36 35 35 35 36 36 36 35 34 35 36 35 35 35 36 36 36 36 36 36 35
52 52 49 44 38 35 34 36 35 33 35 34 36 34 34 35 34 35 33 35 35 34 33 34 34 34 35 36 35 33 33 35 36 35 35 35 34 35 35 36 36 36 37
49 51 48 45 43 43 43 39 39 37 35 36 34 35 36 34 35 35 35 35 34 34 34 33 32 33 35 36 35 33 34 35 35 34 33 33 34 35 36 37 37 37 37

GFSGL_sfc_30mbdewp_108.txt.gz
Dewpoint
69 70 68 70 70 70 68 68 68 67 66 68 65 63 66 69 69 69 69 69 67 66 68 68 67 68 68 68 69 68 66 66 63 63 65 65 65 65 66 67 68 69 71
70 70 70 70 69 69 69 69 68 67 66 63 64 68 70 70 70 69 68 70 68 68 67 68 67 68 67 68 67 66 67 67 65 62 65 66 66 67 67 68 69 70 69
70 69 70 69 67 69 68 68 69 69 69 68 70 70 70 70 70 70 70 70 69 69 69 68 68 68 67 68 66 65 67 67 67 67 66 67 67 68 68 68 69 69 70
69 69 69 67 67 69 69 68 67 69 68 69 70 70 69 67 67 67 68 69 69 69 70 70 69 69 68 67 67 67 68 66 66 65 64 65 66 68 69 68 69 70 69
68 67 67 68 69 68 68 68 68 67 67 68 68 67 65 64 62 63 65 66 69 66 69 70 69 68 68 68 68 67 68 67 66 64 65 65 65 66 67 69 69 70 69
66 66 66 67 66 66 66 67 67 67 67 69 67 64 59 55 54 57 59 63 66 69 68 69 66 64 64 64 65 67 68 66 65 65 66 66 66 67 68 69 69 68 67
66 67 68 67 67 67 68 68 67 66 67 65 58 51 48 47 51 55 59 60 65 69 69 69 64 56 56 59 64 69 68 67 67 67 67 67 67 68 69 67 66 67 67
67 67 68 68 68 67 67 66 65 66 66 59 54 48 43 43 52 57 63 65 65 64 65 61 54 49 49 56 58 62 66 60 58 57 58 59 61 62 62 62 63 66 68
67 68 67 67 66 65 65 65 65 65 63 60 56 50 44 40 50 54 63 64 58 54 50 47 44 42 44 47 48 52 57 55 52 52 55 56 58 57 62 63 64 64 63
61 63 64 64 63 62 62 61 62 66 64 61 56 51 44 40 41 46 51 59 60 56 54 52 43 39 41 44 42 43 45 49 50 53 53 52 52 53 55 57 60 58 62
57 58 59 60 60 59 59 59 62 63 60 58 56 53 44 39 38 40 40 43 48 52 51 49 44 41 42 42 45 46 49 51 52 52 50 50 49 50 50 50 51 52 51
55 56 56 56 56 56 56 57 59 62 60 58 53 50 46 41 40 40 42 43 43 43 45 45 41 43 48 49 50 50 52 52 48 47 46 46 47 46 47 48 48 49 49
50 50 51 51 52 53 52 52 53 56 59 59 58 53 46 40 40 37 39 39 42 42 40 41 43 47 47 47 47 47 46 45 44 43 43 43 45 43 43 45 44 45 47
46 47 47 48 47 44 46 46 45 45 47 47 46 53 48 45 40 32 31 31 33 34 39 44 48 48 46 45 44 45 45 43 41 41 41 43 42 40 40 42 41 40 41
46 45 45 45 42 40 40 40 37 36 39 40 41 45 47 43 36 30 30 29 34 36 41 46 43 42 42 42 43 44 42 41 41 42 40 40 40 40 39 40 39 38 37
48 48 48 48 47 39 37 35 34 33 32 36 39 36 31 33 30 32 34 35 35 37 42 44 44 43 41 40 40 39 39 40 40 40 40 39 39 38 37 37 37 36 35
46 46 46 47 45 45 40 37 34 32 33 30 31 33 36 35 31 33 34 35 36 38 43 43 40 40 40 39 39 39 39 40 40 39 38 37 37 37 35 35 35 35 35
50 48 42 47 45 45 47 44 39 36 33 28 28 31 30 31 32 34 34 38 38 39 42 40 40 40 40 39 39 38 38 38 37 37 36 36 36 36 35 35 36 35 35
47 47 46 42 41 40 41 46 44 41 37 31 30 32 32 32 33 33 34 37 42 40 40 40 40 40 39 38 38 38 37 36 36 36 35 35 35 35 35 35 36 36 36
47 47 46 43 40 37 35 38 39 41 39 36 32 29 30 34 33 36 41 40 39 39 40 40 40 40 39 38 37 37 36 36 35 35 35 35 35 35 35 36 36 35 35
49 48 48 46 41 39 37 34 34 35 39 40 37 33 33 33 35 38 39 39 39 39 39 39 40 39 38 36 36 37 36 36 35 35 35 35 35 35 36 36 34 34 33
50 49 50 48 43 38 37 36 35 34 35 39 40 38 38 34 35 36 40 38 39 38 38 39 39 38 37 36 36 36 35 35 35 35 35 35 35 35 36 36 36 36 36
51 50 49 48 44 40 37 37 34 34 35 36 37 38 37 32 28 37 39 38 39 38 38 38 37 37 37 37 37 36 35 34 34 35 35 35 35 35 36 36 36 36 36
52 51 51 49 48 45 40 37 36 35 35 36 35 34 30 26 27 31 38 38 38 37 36 37 37 37 37 36 36 35 35 35 35 35 35 34 35 35 35 35 36 36 36
51 51 50 50 50 49 44 38 35 36 35 35 35 32 30 30 30 35 37 37 37 36 35 35 35 37 36 35 34 34 34 35 35 35 35 34 34 34 35 35 36 36 37
49 49 49 48 46 46 44 41 37 38 36 35 36 35 34 33 33 36 36 36 35 35 34 35 34 35 36 35 34 33 33 35 35 34 33 32 33 34 35 36 36 36 37

GFSGL_sfc_30mbdewp_111.txt.gz
Dewpoint
69 68 68 68 69 69 69 68 68 69 68 67 68 66 64 66 68 69 69 69 68 66 68 68 67 68 67 68 68 68 66 66 63 63 66 66 65 66 67 68 69 69 69
69 69 69 69 70 69 69 68 68 67 66 65 66 65 66 69 70 69 68 69 68 67 67 67 67 68 68 67 68 67 66 67 66 62 64 66 66 67 68 67 69 69 69
69 68 69 69 69 69 69 69 69 68 67 67 67 68 70 70 69 70 70 69 69 69 69 68 67 68 67 68 67 66 66 67 67 66 65 67 66 67 68 68 69 69 70
69 68 67 68 68 68 69 68 68 69 68 69 69 70 69 67 67 67 68 69 69 69 69 69 69 69 68 67 67 67 67 67 66 65 64 64 66 67 68 67 67 69 69
68 66 66 69 70 69 69 68 68 68 67 68 69 68 66 65 63 63 64 66 67 66 69 70 69 68 67 67 68 67 67 67 66 65 64 65 65 65 66 68 68 68 67
67 68 68 69 68 68 68 67 67 67 67 69 67 65 61 59 55 56 59 62 66 68 68 68 66 65 63 62 63 66 68 67 65 65 65 65 66 67 68 67 67 64 63
67 67 67 67 66 66 66 67 66 66 67 66 61 57 52 50 53 56 58 60 65 68 69 69 63 55 57 60 65 63 62 63 66 67 66 66 64 66 62 62 62 63 64
66 67 67 67 67 68 68 67 66 66 64 60 52 47 45 49 54 62 63 64 65 65 64 62 56 50 51 54 59 65 60 53 54 55 55 56 58 59 60 61 63 64 66
67 67 67 67 67 66 65 64 65 64 60 55 50 46 44 45 50 63 64 61 60 54 51 49 45 43 44 45 47 52 53 49 52 54 53 53 53 53 55 59 60 58 58
64 66 67 67 65 65 64 64 64 63 61 56 52 45 41 39 43 52 60 56 52 51 53 48 43 41 41 43 42 44 46 49 52 50 50 49 49 49 50 51 54 51 60
61 61 62 62 62 62 61 61 64 63 59 56 52 46 39 38 41 42 45 50 54 54 51 49 42 44 45 43 46 47 48 51 49 47 47 46 45 45 47 47 50 51 50
59 59 58 58 57 57 58 58 63 61 59 56 52 46 42 40 40 41 42 43 42 46 46 44 40 47 50 49 49 51 50 47 45 44 43 41 41 41 43 43 46 43 42
54 53 54 53 52 54 54 53 57 60 59 56 53 50 45 41 37 33 36 38 41 40 39 40 44 47 47 47 47 45 44 43 42 41 40 40 41 41 41 41 40 43 39
47 47 49 49 45 45 47 47 48 50 50 51 51 55 47 45 41 34 30 30 33 36 43 49 49 46 45 44 43 43 43 42 41 41 41 41 40 39 38 39 38 38 36
44 44 45 45 41 41 39 39 39 37 41 43 42 50 49 47 42 33 29 29 34 37 43 44 42 42 42 41 41 41 41 41 40 40 39 38 38 37 36 36 36 36 35
45 45 47 45 40 39 38 35 34 33 32 35 38 39 39 38 32 29 31 34 35 37 43 42 42 41 39 38 38 39 40 39 39 38 37 37 36 36 35 35 35 35 34
47 47 47 48 46 41 38 37 36 32 30 30 31 35 35 35 29 30 33 34 35 39 43 42 41 40 39 39 39 38 38 38 38 36 36 36 35 35 35 35 35 35 35
48 50 45 45 46 46 45 43 40 37 35 32 27 29 29 30 31 32 34 36 37 41 42 40 40 40 39 39 38 37 37 36 36 35 35 35 35 35 35 35 36 36 35
48 47 47 43 43 43 41 44 45 42 39 35 28 30 33 32 33 34 34 37 40 41 41 40 40 40 39 38 37 37 36 35 35 34 34 35 35 35 35 36 36 35 34
48 48 47 45 43 40 37 37 43 45 43 40 34 30 29 33 32 35 41 41 41 40 40 40 40 39 38 37 37 36 35 34 34 34 34 35 35 36 35 35 34 34 33
49 49 49 47 45 42 39 36 35 36 38 39 38 35 31 30 31 38 39 39 39 40 40 40 39 38 37 37 36 35 35 34 34 34 34 35 35 35 35 35 35 35 35
51 50 49 48 47 45 42 39 37 35 35 37 38 39 35 32 35 38 39 39 39 40 40 40 39 37 37 36 36 35 35 34 34 34 35 35 35 35 35 35 36 36 35
52 51 50 49 48 47 44 42 38 36 35 35 36 38 39 36 33 35 38 39 39 38 40 40 38 37 37 37 37 36 34 33 33 35 35 35 35 35 35 35 35 35 34
48 51 51 50 49 49 48 46 43 41 38 35 35 36 37 38 35 32 38 39 39 38 39 39 37 36 37 37 37 36 35 34 35 35 35 34 34 34 35 35 35 35 35
46 48 50 50 49 49 48 46 43 42 41 38 36 35 35 35 33 28 37 39 39 37 37 38 37 37 36 36 36 35 34 35 35 35 34 34 34 34 34 35 35 35 35
45 47 47 48 47 47 47 47 46 44 44 40 38 36 35 34 32 31 35 39 38 37 36 37 36 37 36 35 35 34 33 34 34 34 34 33 33 33 34 34 35 35 35

GFSGL_sfc_30mbdewp_114.txt.gz
Dewpoint
67 67 67 67 68 68 69 69 68 68 69 68 67 68 67 66 68 69 69 69 68 68 68 67 68 68 67 68 69 68 67 66 64 65 66 67 67 68 69 69 70 71 70
68 68 68 68 69 69 69 69 68 68 67 66 67 67 65 66 69 69 69 69 69 68 67 67 67 68 68 68 68 68 67 67 66 65 65 67 67 68 68 69 70 69 71
68 68 68 68 69 69 69 69 69 68 67 66 64 65 65 69 70 70 70 69 69 69 69 68 68 68 68 68 68 67 66 67 68 66 66 67 67 68 68 69 69 70 70
68 68 68 69 68 65 66 68 68 68 68 68 68 69 70 69 69 69 68 69 69 70 70 70 69 69 69 68 68 68 67 67 67 66 65 65 66 67 68 68 68 70 67
68 68 68 68 68 68 68 68 69 69 68 68 69 69 68 67 65 64 65 66 67 68 69 70 70 69 68 68 68 68 68 68 67 66 65 65 66 66 67 69 68 67 67
68 67 67 67 66 67 69 69 68 68 68 68 67 66 65 63 56 57 59 62 64 67 68 70 67 65 63 62 66 67 67 68 67 66 66 66 66 67 67 63 65 64 62
67 67 67 68 67 67 68 68 67 67 67 67 66 63 58 53 54 56 58 60 63 67 69 68 63 58 58 63 62 61 60 62 65 68 66 65 62 64 60 61 63 64 65
66 67 67 67 67 67 67 67 67 67 66 64 58 51 48 51 54 62 62 64 65 63 64 64 59 55 54 55 65 63 54 54 55 56 58 58 56 57 61 63 64 65 67
66 66 67 67 67 67 67 67 66 65 61 56 50 47 47 48 53 63 64 63 59 56 53 52 51 46 45 46 55 59 50 53 53 53 52 50 50 50 53 58 55 60 62
66 66 67 67 67 66 65 65 65 62 58 52 48 45 41 42 45 56 59 56 53 52 51 47 45 45 43 43 45 48 48 51 52 51 49 48 49 49 50 53 56 57 60
62 63 63 64 65 64 64 64 64 61 56 53 49 42 41 42 43 43 48 55 56 56 53 50 45 46 47 43 46 49 50 53 49 47 45 44 44 45 45 45 45 49 48
60 60 60 60 60 61 61 63 63 61 57 55 48 42 41 40 39 40 40 44 44 49 49 46 41 49 50 47 50 51 49 47 46 43 42 41 41 41 44 43 44 43 42
57 56 57 56 56 56 56 59 61 59 57 54 50 47 44 42 35 32 32 35 38 40 40 41 46 47 47 47 46 45 44 44 43 41 41 41 41 41 41 41 42 41 40
49 50 50 50 49 49 48 52 55 56 58 57 56 53 48 45 43 36 33 32 35 41 47 50 48 46 45 44 44 44 44 44 42 41 40 40 40 37 36 38 36 39 35
44 45 44 42 42 40 38 39 40 38 43 47 45 51 51 48 45 36 29 31 36 39 46 45 44 42 42 42 42 42 42 42 40 40 39 37 36 35 35 36 36 35 34
42 44 44 42 40 39 38 35 33 33 33 36 38 44 42 40 34 29 31 34 35 38 45 43 42 42 40 40 40 40 40 39 39 38 37 36 35 34 35 36 36 35 34
47 47 48 47 44 40 38 38 38 35 29 29 31 35 35 35 30 31 32 34 36 39 44 43 42 41 40 40 40 39 38 38 39 37 36 35 35 35 35 35 35 34 34
46 49 47 45 46 46 44 43 41 40 38 36 28 28 28 29 29 31 34 36 36 39 44 43 41 41 40 40 39 38 37 36 35 35 35 35 35 35 35 35 35 34 34
48 48 47 45 45 45 45 44 45 44 42 39 35 30 31 33 32 33 35 36 38 41 43 42 41 41 40 39 38 38 37 35 34 34 35 35 35 35 35 35 34 34 34
49 48 47 46 45 43 41 39 40 43 44 43 41 37 31 32 31 33 38 42 40 42 42 41 41 40 40 39 38 37 36 34 34 34 34 35 36 36 35 35 34 34 35
51 51 50 49 47 44 42 40 38 37 40 42 41 40 33 31 32 33 40 41 42 42 42 42 41 40 40 39 38 37 35 34 34 34 35 35 36 35 36 36 36 36 36
50 50 50 50 50 48 47 44 43 40 38 37 38 40 37 33 33 35 40 41 42 42 42 42 40 39 39 38 38 36 35 34 34 35 35 36 36 35 36 35 36 35 35
47 47 49 50 50 49 49 47 45 42 41 39 38 37 39 37 34 37 40 41 41 41 42 41 40 39 39 39 38 37 35 34 34 35 35 36 35 35 36 36 35 35 34
45 45 46 48 50 50 49 49 48 46 44 42 42 40 38 39 38 35 39 41 41 41 41 41 40 38 39 38 38 37 37 35 35 36 36 36 35 35 35 35 36 35 35
45 45 47 48 49 49 49 48 48 47 46 45 44 43 42 40 40 39 37 40 41 40 40 41 39 38 38 38 37 37 36 34 36 35 36 36 36 36 35 35 35 35 35
44 44 45 46 46 46 46 46 46 46 46 46 46 45 44 41 39 38 37 39 40 40 39 39 39 38 38 38 38 37 34 34 34 35 35 35 34 34 35 35 36 36 35

GFSGL_sfc_30mbdewp_117.txt.gz
Dewpoint
67 68 68 69 69 70 70 70 71 71 71 70 70 70 70 70 70 71 71 71 70 70 70 69 69 70 68 67 68 68 67 67 63 62 66 66 69 69 70 69 67 68 67
67 69 69 69 70 70 70 71 71 71 71 70 70 69 69 70 69 70 70 69 69 69 69 69 69 68 69 71 68 68 68 68 66 65 66 66 68 68 68 69 68 66 68
68 68 69 69 70 70 71 71 71 71 70 69 69 68 70 69 68 70 71 71 69 69 69 69 69 69 69 67 70 70 68 68 68 67 66 68 67 67 67 68 70 70 65
68 68 68 69 70 70 71 69 69 70 70 70 70 70 69 69 71 71 71 71 71 70 70 69 70 70 70 69 68 69 68 69 69 69 67 66 66 68 68 67 65 66 65
68 68 68 70 71 70 69 69 69 69 69 69 70 70 71 71 70 70 70 69 69 69 70 71 71 68 66 66 68 69 69 68 68 67 68 67 67 65 66 66 64 64 67
69 69 70 70 70 69 69 70 69 69 69 69 69 67 67 67 58 57 61 67 67 67 68 70 69 65 64 66 66 67 68 69 68 68 67 66 67 66 66 62 63 62 62
68 69 69 68 68 67 68 69 69 68 68 68 68 66 64 58 54 56 57 62 65 67 69 70 67 61 63 65 62 60 58 60 64 69 68 67 64 66 62 63 66 66 64
66 67 68 67 67 68 68 68 68 68 67 67 65 61 58 56 53 61 62 64 67 66 66 68 65 59 57 59 65 61 57 58 60 58 62 58 56 58 63 64 66 66 60
66 67 67 67 67 67 67 67 68 67 66 64 59 54 53 52 53 63 65 65 63 58 57 57 58 53 46 47 61 62 56 54 51 50 50 50 51 52 56 58 56 58 59
66 67 67 67 67 67 67 66 66 66 63 59 54 51 47 50 48 56 61 62 60 56 53 49 44 49 43 43 53 55 54 56 52 52 51 51 53 50 49 53 54 55 57
64 64 64 63 65 66 66 65 63 61 59 56 54 50 48 48 45 45 53 60 59 59 56 54 50 45 47 43 46 52 54 56 52 51 48 47 46 47 45 47 47 46 47
62 62 62 61 61 62 63 65 62 59 58 55 50 46 46 42 41 39 41 44 47 55 55 52 48 48 48 47 51 51 51 50 49 46 45 43 42 44 45 44 46 44 43
58 57 56 58 58 58 60 62 62 61 59 55 51 47 44 43 39 33 33 35 37 43 43 43 48 48 48 48 47 46 47 47 46 44 43 41 40 41 45 44 42 42 41
53 53 54 52 53 53 52 55 59 60 58 55 53 52 49 47 45 41 38 37 38 43 49 47 48 48 47 45 45 45 46 45 44 42 41 40 39 36 36 36 36 38 33
47 45 44 44 47 46 43 45 46 42 48 54 52 55 54 50 48 39 33 36 38 43 49 47 46 45 45 44 44 44 43 42 41 40 39 37 35 34 34 35 34 34 33
44 43 42 42 42 42 40 37 33 34 35 38 39 47 45 42 34 30 31 33 35 41 47 46 45 44 43 43 42 42 40 40 40 39 38 35 34 33 33 34 34 33 32
48 49 47 46 43 43 42 42 41 37 28 29 33 35 35 35 29 31 32 33 35 38 42 44 45 44 43 42 41 40 39 39 41 37 35 34 33 33 33 33 33 33 33
50 49 47 47 47 47 46 45 44 44 43 42 31 29 28 30 30 31 33 35 33 35 35 38 43 43 42 41 40 39 38 37 36 35 34 33 33 33 33 33 33 33 33
51 49 49 47 46 46 46 45 44 44 44 43 43 34 30 31 31 33 34 35 34 33 35 40 43 43 42 41 40 39 38 36 35 33 33 33 33 33 33 33 33 34 34
53 50 49 50 49 47 45 44 42 42 42 43 43 44 40 33 34 36 36 37 40 40 41 42 43 42 42 41 41 40 38 35 35 33 32 33 34 34 33 33 33 33 34
50 50 51 50 50 50 48 48 46 44 44 43 41 41 43 39 37 36 33 38 41 42 44 44 43 42 42 42 40 39 37 35 34 33 32 33 34 33 34 35 34 34 35
44 45 47 47 48 49 49 50 49 48 48 46 44 41 40 38 37 37 36 38 41 44 44 44 42 41 41 40 40 37 36 34 34 33 33 34 34 34 34 34 34 34 34
42 42 41 43 46 49 47 47 47 46 45 45 45 45 42 39 38 37 37 38 41 43 43 43 42 40 40 40 39 38 35 34 34 33 33 34 34 34 34 34 34 33 33
46 44 44 44 45 45 46 47 47 47 46 45 44 43 43 44 44 42 39 39 40 42 42 42 41 39 40 39 38 37 35 35 34 34 34 34 34 35 34 34 34 34 33
45 45 45 46 47 47 47 46 46 46 45 45 44 44 43 44 45 45 43 39 40 42 41 41 41 39 40 39 37 36 35 35 35 34 35 35 35 36 34 33 34 34 34
46 46 46 46 46 46 46 46 46 46 46 46 45 45 45 45 45 45 43 40 40 41 42 42 40 39 39 39 38 37 35 34 35 34 34 34 34 34 34 34 35 34 34

GFSGL_sfc_30mbdewp_120.txt.gz
Dewpoint
65 65 66 66 67 68 68 69 70 71 71 71 71 70 70 70 70 71 69 68 68 68 68 68 68 68 65 62 62 62 62 62 60 58 59 62 67 66 67 67 65 66 68
65 66 67 67 68 67 68 68 70 71 71 71 71 70 70 70 70 70 70 67 67 67 67 67 67 65 66 68 65 64 64 65 64 62 63 63 66 67 67 68 66 63 65
67 67 67 67 68 67 68 69 70 70 70 70 70 70 69 69 69 69 70 68 68 67 67 67 67 67 67 67 67 67 66 66 67 67 64 65 65 65 65 67 68 68 64
67 67 67 68 67 68 69 70 70 70 70 70 70 70 69 69 69 69 69 68 68 68 68 68 67 68 68 68 67 68 67 68 68 66 66 66 64 65 66 64 62 63 63
67 67 67 67 68 69 69 70 70 70 69 69 69 69 70 69 68 70 70 69 68 68 69 69 68 69 68 69 69 68 68 66 64 63 64 65 66 63 66 66 62 62 69
67 68 67 69 69 69 68 70 69 68 68 68 68 68 69 68 61 58 62 67 68 68 68 68 71 67 65 65 66 67 68 68 67 67 66 65 66 68 66 62 61 61 64
69 68 69 69 68 69 69 70 69 69 69 69 68 69 68 66 55 55 57 62 65 66 68 68 70 66 66 67 62 60 58 59 63 66 69 68 67 67 65 65 66 66 65
68 68 69 69 69 69 68 68 68 69 69 69 69 68 67 63 56 60 63 62 65 67 67 70 70 66 61 61 65 62 60 58 60 62 64 60 59 59 64 64 66 66 63
66 67 67 68 68 68 67 67 68 68 68 66 63 61 59 56 53 63 64 66 65 63 60 61 62 60 49 48 61 65 59 54 50 51 51 50 49 50 54 58 58 56 64
66 67 68 68 68 67 67 67 68 68 65 61 58 56 55 55 51 56 62 65 64 62 61 55 47 55 44 43 57 61 59 59 53 53 54 54 55 52 51 54 52 52 54
67 66 65 65 66 67 67 67 65 61 58 57 56 55 54 53 49 46 53 62 61 61 59 58 55 44 47 42 44 56 57 59 56 56 53 50 50 49 47 49 50 46 47
64 63 63 63 64 64 64 62 60 59 58 56 55 53 52 48 43 39 40 43 48 58 59 57 55 47 47 46 49 51 53 54 52 50 48 47 45 45 46 47 49 47 45
59 58 59 60 60 60 62 62 60 60 58 56 54 53 52 50 45 35 33 35 34 43 46 44 45 49 49 49 49 49 49 50 49 47 46 45 43 44 47 46 45 46 44
55 54 54 57 57 57 57 58 60 60 59 58 56 54 52 49 47 46 43 41 39 45 48 46 48 48 47 48 47 48 49 48 48 46 45 43 41 39 37 38 37 38 34
47 47 48 50 50 48 47 51 52 49 53 58 57 58 55 53 50 45 37 41 39 43 49 47 46 46 45 47 48 48 47 45 44 43 42 41 38 36 36 36 35 34 33
40 40 42 44 44 44 42 38 36 44 44 44 44 48 47 45 36 31 30 31 34 42 45 44 44 43 42 43 44 44 44 42 42 41 39 38 36 35 34 35 35 33 33
47 47 45 43 41 42 42 42 40 33 30 32 35 35 36 38 30 31 32 32 33 35 39 39 42 43 42 43 43 43 41 41 43 38 37 36 35 33 31 32 33 32 32
49 47 44 45 46 46 45 44 42 41 41 42 30 33 29 31 31 30 31 33 34 36 32 31 36 41 42 43 42 41 40 41 38 37 36 34 34 33 32 32 31 32 32
51 51 50 49 48 47 47 46 43 43 43 42 43 37 31 29 30 32 33 33 32 31 31 32 34 38 41 42 42 41 41 38 37 36 34 33 32 32 32 31 32 31 33
53 51 51 51 50 49 48 46 45 45 45 43 43 41 42 37 38 38 39 39 36 35 34 36 36 40 41 43 43 42 41 38 37 36 33 33 33 32 31 32 31 32 33
45 46 45 43 43 44 44 44 44 44 44 44 44 44 41 40 38 38 38 37 37 37 37 39 40 42 43 44 43 41 39 37 36 34 32 33 33 31 33 32 32 32 33
35 34 35 36 38 38 40 41 40 42 41 41 40 39 40 43 42 40 38 38 37 38 39 41 43 44 43 43 42 40 37 35 34 34 32 32 33 32 32 32 32 32 32
34 34 34 35 37 40 39 39 38 39 39 38 39 38 38 37 38 40 41 40 38 38 39 41 42 42 41 41 39 38 35 34 34 33 32 32 32 31 32 32 32 32 32
38 38 39 39 40 39 39 40 40 41 41 40 39 39 39 38 38 38 39 41 43 41 39 40 40 39 38 39 37 37 36 35 34 34 33 32 32 33 32 32 32 32 32
38 39 39 39 40 40 40 39 40 40 40 40 39 39 39 39 39 39 39 40 41 42 41 41 42 41 40 40 36 36 36 34 35 33 34 33 33 34 32 31 31 32 32
40 40 40 40 41 41 40 39 38 38 38 40 40 40 41 41 42 43 43 42 44 43 41 41 42 43 40 39 38 36 34 34 35 33 34 32 32 32 31 32 32 31 31

GFSGL_sfc_30mbdewp_123.txt.gz
Dewpoint
64 65 65 65 66 67 67 68 69 69 70 70 70 70 70 70 70 71 71 70 68 68 67 66 67 68 65 62 63 63 59 57 58 61 61 66 66 64 66 67 65 67 69
64 66 66 66 65 65 66 66 70 70 70 71 71 70 70 70 70 70 71 68 68 67 68 68 66 65 67 68 65 65 66 67 65 65 64 62 68 67 66 68 68 65 69
65 64 65 66 67 66 66 67 68 70 70 69 70 70 70 69 69 69 70 69 68 67 66 66 66 67 67 65 67 66 64 67 68 67 66 67 68 70 67 67 67 67 68
65 64 65 65 65 66 67 68 67 67 69 68 69 70 69 68 68 69 69 69 69 69 69 69 68 69 68 68 69 68 69 67 65 67 67 67 66 69 68 67 65 69 68
66 66 66 67 66 67 67 68 68 68 68 67 66 67 68 68 67 68 69 69 68 68 68 69 69 69 69 69 68 68 69 66 65 68 64 65 65 66 64 65 66 66 69
67 67 68 69 68 68 69 69 70 69 69 68 68 68 68 67 62 62 65 67 67 67 67 68 69 69 67 66 66 66 69 69 67 67 66 66 67 69 69 68 64 66 65
68 68 68 68 69 69 68 70 70 70 70 69 69 69 69 64 57 57 58 63 66 67 67 68 69 68 68 69 61 60 59 58 61 63 68 69 68 65 65 66 67 68 68
68 68 69 69 69 69 69 69 70 70 70 70 68 69 69 59 56 59 63 65 65 68 67 67 71 69 62 63 67 65 63 61 60 62 65 62 59 58 61 64 66 67 66
68 68 68 67 68 68 68 69 69 69 68 68 67 64 62 57 56 59 63 66 65 64 62 60 64 64 54 51 59 65 62 59 52 50 50 50 50 50 53 57 58 63 65
66 67 68 68 68 68 68 68 68 68 67 63 60 58 58 56 50 52 55 62 66 65 62 56 53 58 53 46 52 64 63 61 53 54 57 57 57 54 53 56 53 52 52
67 67 66 66 66 67 67 67 64 61 59 57 56 56 53 52 47 44 47 57 59 63 62 60 50 44 46 44 43 56 60 59 60 58 58 55 53 52 49 51 53 47 49
65 65 64 65 65 65 63 61 60 60 57 55 54 53 52 50 48 48 44 43 41 57 60 59 53 45 45 45 47 51 50 51 56 56 54 51 49 47 48 49 51 50 48
60 60 60 60 61 63 63 61 60 59 58 56 55 55 54 52 52 47 42 40 42 43 43 44 43 48 49 50 50 50 50 52 53 51 50 48 47 46 51 48 49 49 47
57 57 56 57 60 62 61 60 61 60 58 58 56 55 54 54 54 52 50 46 43 45 48 47 49 48 48 49 48 49 51 51 51 49 49 48 46 44 41 40 38 40 37
51 52 53 52 52 52 54 56 56 53 57 59 59 58 56 56 55 49 42 45 41 44 45 49 48 48 46 47 48 49 50 48 48 48 47 45 42 40 40 40 37 36 35
42 42 46 47 46 45 46 46 42 46 47 49 50 53 54 46 40 34 32 31 32 36 43 46 46 45 43 43 44 46 46 46 46 46 44 43 40 38 37 38 37 35 34
48 47 43 42 43 45 44 42 38 34 34 36 36 37 39 43 36 31 32 31 30 32 35 37 39 44 45 44 43 44 44 44 47 43 40 39 37 37 35 36 34 34 33
49 47 46 45 44 45 44 43 42 43 42 37 30 34 32 32 31 31 30 32 36 37 36 35 33 35 42 44 44 44 44 45 44 43 40 39 37 36 34 34 33 33 33
51 50 49 49 48 48 48 47 45 45 45 44 45 34 31 29 29 30 31 34 36 36 34 34 34 34 36 40 43 44 44 42 40 40 38 36 35 34 33 32 33 31 30
51 49 50 49 48 48 46 44 43 44 44 44 44 44 40 38 42 42 41 43 42 40 38 38 38 38 39 41 43 44 44 43 40 39 37 35 35 35 32 32 32 32 33
40 44 41 39 39 40 41 39 40 40 40 39 39 44 43 42 41 40 39 39 40 40 40 41 41 41 43 44 45 44 43 41 40 38 36 35 34 34 33 32 32 32 32
31 31 31 33 34 35 38 37 34 36 38 37 37 41 41 40 39 38 38 39 38 38 38 39 40 41 42 42 43 43 42 40 38 36 35 34 33 34 32 32 32 32 32
32 32 33 34 35 37 38 37 37 37 37 37 37 37 36 36 36 36 37 37 37 38 39 39 41 41 44 44 44 42 40 37 35 35 34 33 32 32 32 31 31 31 31
34 34 35 36 36 36 37 36 36 37 37 36 36 36 36 36 36 37 37 37 37 39 40 39 39 41 42 43 42 39 37 36 35 35 36 33 32 32 32 32 32 32 32
34 35 36 37 37 37 37 37 37 37 36 35 35 36 36 37 37 38 39 40 39 40 41 44 41 42 45 41 41 38 34 35 37 33 35 33 32 33 32 31 31 31 31
36 37 37 37 38 37 36 35 35 35 37 38 40 41 42 43 42 42 43 44 41 41 42 42 45 46 47 47 43 35 33 34 34 32 35 32 32 33 31 31 31 31 30

GFSGL_sfc_30mbdewp_126.txt.gz
Dewpoint
67 69 68 69 70 70 69 70 70 70 71 71 71 72 71 71 71 71 72 72 69 69 70 70 68 69 67 67 69 68 67 68 66 68 67 70 69 69 68 70 69 70 68
67 68 68 69 70 69 70 71 70 70 72 73 73 73 73 72 72 71 71 71 70 70 70 69 69 68 68 69 68 68 68 68 67 66 68 68 69 66 64 66 70 71 68
67 67 68 69 69 69 69 69 71 70 71 71 72 71 71 71 70 72 72 72 71 70 70 69 69 68 67 68 68 68 68 69 69 67 66 68 68 69 68 69 70 68 64
67 67 68 68 68 68 69 69 69 70 69 70 71 71 70 70 70 70 70 71 70 70 70 70 69 69 69 68 68 69 69 68 66 63 66 67 68 69 68 64 66 70 65
67 67 67 69 69 69 69 69 70 70 69 71 70 70 71 70 67 68 70 70 70 69 70 70 70 70 68 69 69 70 69 68 67 65 66 65 66 66 65 66 66 68 69
68 67 68 69 69 68 69 70 70 70 71 70 69 68 69 64 62 63 64 67 68 69 69 69 69 69 67 66 67 66 67 68 68 68 67 65 66 66 68 66 65 64 65
69 68 68 69 69 69 70 70 70 71 71 70 69 69 69 63 61 62 63 63 66 68 69 69 70 70 69 68 61 60 60 60 62 63 66 68 66 64 65 66 67 66 67
67 68 69 69 69 70 70 70 70 71 71 70 69 69 65 59 59 61 63 64 66 68 68 67 68 68 62 63 66 66 65 61 59 62 66 59 57 56 58 59 60 65 68
67 69 69 69 69 68 69 69 70 69 70 70 69 68 63 57 56 58 61 65 67 66 64 62 64 64 54 51 60 64 64 58 51 50 50 50 50 51 56 60 58 57 60
67 67 68 69 68 68 68 69 69 68 67 63 59 58 56 51 50 50 57 61 62 66 63 56 55 59 54 50 55 59 64 65 57 52 54 55 55 57 56 57 55 51 52
67 67 66 66 65 64 63 63 61 59 57 56 55 54 52 51 50 48 48 48 52 59 65 56 52 49 47 47 44 49 58 55 62 61 62 60 58 58 55 55 54 52 52
65 65 65 65 65 63 61 60 59 58 56 55 54 53 52 52 51 50 47 48 52 55 56 56 53 46 45 46 48 51 51 50 53 58 59 58 56 54 53 53 52 51 51
62 61 61 62 64 63 61 60 60 58 57 56 55 54 53 53 52 50 50 48 47 43 51 49 45 48 50 50 51 49 49 53 54 56 55 52 50 52 53 51 50 50 49
58 58 59 60 61 62 62 62 60 59 58 58 57 56 54 54 54 55 55 52 49 50 50 50 48 49 50 52 50 49 51 55 52 54 53 51 48 48 46 48 47 50 49
56 55 55 55 55 55 53 54 57 53 55 59 59 58 58 57 57 52 45 44 37 39 40 47 53 52 51 52 53 54 52 51 51 51 51 48 46 45 43 44 41 41 39
51 51 51 51 53 52 51 49 43 46 48 52 53 57 52 49 42 38 34 32 33 32 37 40 41 46 47 51 51 50 50 48 49 49 49 48 47 46 43 41 42 39 41
47 46 45 45 45 45 45 44 42 39 36 37 37 40 41 44 37 33 32 30 29 32 35 39 41 42 44 48 47 49 52 53 51 48 46 47 45 45 39 37 40 40 40
48 48 47 47 48 49 50 46 42 40 39 37 32 36 33 32 31 30 28 31 41 39 37 41 43 42 41 45 47 47 49 47 46 46 45 43 42 39 39 39 38 41 42
54 54 53 51 51 50 49 47 47 47 48 46 42 34 33 30 29 28 30 34 38 41 42 43 43 43 43 45 47 50 48 48 46 47 45 43 42 40 39 38 36 33 32
49 48 48 52 51 51 49 46 47 48 48 48 49 48 39 36 43 46 42 44 45 46 43 44 44 44 45 47 47 50 48 46 45 43 43 42 41 39 37 38 36 38 35
47 45 38 38 42 43 41 40 41 41 40 41 46 45 44 47 43 42 42 43 47 46 46 46 45 47 47 47 47 47 46 45 46 43 41 41 38 38 39 38 37 35 34
33 33 36 35 36 41 40 37 36 38 38 38 41 43 43 42 40 39 39 40 41 42 43 45 44 44 45 47 49 48 48 47 44 45 41 38 37 38 36 37 35 35 35
32 32 35 38 38 35 39 41 38 39 38 38 38 38 40 39 38 39 39 40 41 44 45 45 46 43 43 46 50 51 50 49 47 40 38 37 36 36 36 35 34 34 34
34 34 34 38 34 37 37 35 37 36 36 35 35 36 37 38 38 38 42 45 45 43 43 44 46 46 47 49 50 48 48 46 45 40 39 38 36 35 34 34 34 33 34
33 35 35 36 37 37 37 36 35 35 35 36 37 39 40 42 44 43 44 45 45 44 43 43 44 47 48 50 51 48 38 36 38 38 39 38 37 36 35 34 34 34 34
35 36 36 37 38 36 36 35 35 37 38 40 41 42 43 44 44 45 45 46 46 45 45 43 44 47 47 47 40 35 34 33 33 36 38 38 38 35 35 34 33 32 32

GFSGL_sfc_30mbdewp_129.txt.gz
Dewpoint
68 69 69 69 68 70 69 69 69 69 68 70 70 70 70 71 71 70 70 71 70 69 68 68 69 69 68 67 68 68 67 66 63 66 68 70 68 65 65 68 71 68 65
69 68 68 68 68 69 69 69 69 69 71 70 71 71 71 71 71 71 71 71 70 70 69 70 69 69 68 69 68 69 68 69 67 65 68 67 67 65 68 68 70 67 63
67 69 68 68 69 69 70 69 69 69 70 71 72 71 71 71 71 71 71 70 70 70 70 69 69 69 68 68 68 67 69 70 68 65 64 67 69 69 67 68 68 64 62
67 68 69 69 69 69 70 70 71 71 69 71 71 71 70 70 70 70 70 70 71 70 70 70 69 68 68 69 69 68 69 68 66 64 64 66 66 68 68 64 67 67 63
67 67 68 69 69 69 69 69 70 70 69 69 70 71 71 70 66 67 70 70 69 69 69 69 70 70 69 68 69 69 69 67 67 65 65 66 64 65 65 65 65 67 66
63 67 69 68 69 69 68 69 69 70 70 71 70 69 67 63 62 64 66 66 66 68 68 69 69 68 67 67 66 66 67 67 66 66 65 64 64 65 65 65 64 65 64
64 67 68 69 67 68 68 68 69 68 69 69 68 68 65 61 62 63 64 63 64 67 67 68 68 68 67 65 61 61 61 62 62 63 64 66 64 62 61 64 64 64 63
64 69 68 67 67 68 68 68 68 69 68 67 68 66 62 58 59 62 64 64 66 68 65 64 67 64 58 60 64 66 63 58 57 61 65 60 56 53 54 57 58 62 66
68 68 68 69 68 68 68 68 69 69 69 67 67 63 59 54 52 57 63 65 66 64 61 59 61 59 54 53 59 62 65 60 51 50 50 50 50 52 57 57 54 55 57
67 68 68 67 66 65 66 65 63 63 61 58 56 54 52 51 52 56 60 61 62 65 58 52 54 51 49 47 49 58 61 65 62 58 52 52 53 56 55 53 53 50 52
66 66 65 64 64 63 62 61 59 58 57 56 54 53 53 53 51 52 54 56 59 61 61 57 55 51 50 50 47 47 51 53 55 61 58 61 60 56 54 52 50 48 49
65 65 64 63 63 61 60 59 58 57 56 54 54 53 52 52 51 51 50 50 55 57 56 57 56 54 48 47 47 50 51 51 52 53 57 59 59 54 54 50 48 46 50
62 62 63 62 61 61 60 58 57 57 56 55 54 54 53 53 53 52 52 51 50 48 49 50 47 49 52 53 54 51 49 53 57 58 54 52 53 53 52 51 50 48 48
60 60 62 62 61 61 61 60 59 59 58 57 56 55 54 54 54 55 53 52 48 43 39 40 49 50 47 46 50 50 50 53 50 51 54 50 49 49 47 50 47 47 49
58 57 57 58 57 56 53 55 56 53 57 59 58 57 57 56 55 52 43 37 35 35 35 43 45 49 49 52 52 53 54 51 48 52 51 47 46 45 43 43 40 39 39
55 56 56 56 56 55 53 50 42 45 49 52 55 57 49 49 42 38 35 34 32 30 30 34 37 39 42 46 49 51 52 49 49 49 48 49 46 45 44 43 41 39 39
50 50 50 51 51 50 48 47 46 40 39 41 43 42 44 42 37 33 30 28 29 33 36 38 41 41 40 42 46 49 48 52 51 49 45 43 43 41 39 37 38 40 38
48 45 48 46 44 44 44 42 40 37 35 34 33 34 35 33 30 30 28 32 40 39 39 41 43 45 46 47 47 48 49 48 46 45 44 43 43 40 38 39 40 41 40
53 50 49 50 50 50 50 45 44 43 43 41 35 34 33 31 30 29 29 35 39 41 43 44 43 43 43 44 45 47 51 49 48 47 45 44 44 40 39 38 36 34 32
48 50 52 51 50 50 50 48 48 49 49 47 44 42 38 34 41 42 40 41 41 42 44 45 43 44 43 43 43 45 48 47 44 43 42 42 42 38 36 36 37 38 36
44 41 37 40 45 47 44 44 46 48 48 49 51 47 41 41 44 47 44 47 46 47 49 48 48 48 49 49 48 47 47 46 47 46 43 41 40 37 38 38 39 37 37
43 44 40 40 40 38 38 36 36 40 42 45 46 45 43 44 44 42 43 44 46 46 47 46 46 46 46 48 49 49 49 49 48 48 49 49 42 39 38 35 36 35 36
42 35 38 39 37 36 38 41 41 39 38 39 41 42 42 42 44 45 45 46 45 45 45 45 47 48 49 51 52 50 47 47 46 46 46 43 39 37 36 35 36 35 36
39 39 40 37 35 39 40 39 37 37 38 40 42 44 45 45 45 45 46 46 46 46 44 46 47 48 49 50 51 50 47 48 46 45 45 41 39 37 37 35 34 35 36
38 39 39 38 41 40 38 38 39 39 41 42 43 45 46 46 45 46 47 47 47 46 46 46 47 47 46 45 47 42 37 41 43 41 40 39 38 38 36 36 35 35 34
38 38 40 39 39 37 38 40 39 40 41 43 44 44 44 45 45 47 47 47 47 46 46 48 47 47 44 43 39 34 33 36 39 39 42 42 41 39 37 33 34 33 32